Other Public Products
Issued by NWS Charleston, SC

Current Version | Previous Version | Graphics & Text | Print | Product List | Glossary On
Versions: 1 2 3 4 5 6 7 8 9 10 11 12 13 14 15 16 17 18 19 20 21 22 23 24 25 26 27 28 29 30 31 32 33 34 35 36 37 38 39 40 41 42 43 44 45 46 47 48 49 50
000
FPUS82 KCHS 300727
OPUCHS

TEST...KCHS/KSAV Gateway Observations...TEST
National Weather Service Charleston SC
300 AM EDT THU MAR 30 2017

NOTE: "fair" indicates few or no clouds below 12,000 feet with no
significant weather and/or obstructions to visibility.

SCZ050-WAZ558-NCZ071-TXZ119-213-PAZ071-DCZ001-FLZ074-172-MI076-
NYZ176-178-MAZ016-IL014-TNZ027-NJZ106-GAZ044-MD014-300800-

...Gateway Observations for Charleston International...

CITY           SKY/WX    TMP DP  RH WIND       PRES   REMARKS
Chas Airport   MOCLDY    67  62  84 E7        30.05F
Seattle        CLOUDY    45  41  86 SW10      30.01R
Charlotte      CLEAR     62  54  74 SE14      30.07S
Dallas DFW     PTCLDY    57  46  66 W10       29.83S
Dallas Love    PTCLDY    58  45  62 W12       29.85R
Philladelphia  MOCLDY    42  25  50 NE12      30.20F
Wash National  PTCLDY    50  32  50 E9        30.21S
Baltimore      CLEAR     45  28  51 NE5       30.21R
Miami          PTCLDY    73  62  68 E6        30.01F
Detroit        CLOUDY    40  33  76 NE8       30.15F WCI  34
Newark         PTCLDY    37  23  56 N6        30.21F WCI  32
Laguardia      PTCLDY    42  23  46 N8        30.21F
J F K          PTCLDY    39  23  52 N8        30.22F WCI  33
Boston Logan   PTCLDY    36  24  62 NW10      30.14F WCI  28
Ft. Lauderdale PTCLDY    74  63  68 SE8       30.00F
Chicago O`Hare HVY RAIN  42  39  89 E14       29.95F FOG
Chicago Midway TSTM      42  40  92 E13G25    29.93F FOG
Houston Bush   MOCLDY    65  64  97 CALM      29.80S FOG
Houston Hobby  PTCLDY    64  62  93 SW5       29.80S
Nashville      CLOUDY    67  59  75 S5        29.86F
Atlanta        PTCLDY    68  60  75 SE5       29.97F

$$

GAZ044-118-TXZ119-213-NCZ071-DCZ001-MDZ014-506-PAZ021-071-NJZ106-
NYZ176-178-MAZ106-OHZ011-021-055-MIZ076-KYZ091-ILZ014-INZ047-
MNZ060-ONZ431-300800-

...Gateway Observations for Savannah International...

CITY           SKY/WX    TMP DP  RH WIND       PRES   REMARKS
Savannah Arpt  CLOUDY    67  64  90 E3        30.02S
Atlanta        PTCLDY    68  60  75 SE5       29.97F
Charlotte      CLEAR     62  54  74 SE14      30.07S
Dallas DFW     PTCLDY    57  46  66 W10       29.83S
Houston Bush   MOCLDY    65  64  97 CALM      29.80S FOG
Wash National  PTCLDY    50  32  50 E9        30.21S
Wash Dulles    PTCLDY    44  32  62 NE6       30.19F
Baltimore      CLEAR     45  28  51 NE5       30.21R
Philadelphia   MOCLDY    42  25  50 NE12      30.20F
Newark         PTCLDY    37  23  56 N6        30.21F WCI  32
Laguardia      PTCLDY    42  23  46 N8        30.21F
J F K          PTCLDY    39  23  52 N8        30.22F WCI  33
Boston         PTCLDY    36  24  62 NW10      30.14F WCI  28
Pittsburg      PTCLDY    46  30  53 NE9       30.11S
Akron          MOCLDY    45  30  55 E13       30.09F
Cleveland      CLOUDY    46  33  60 N8        30.15F
Cincinnati     MOCLDY    53  44  71 SE10      29.94F
Columbus       CLOUDY    47  36  64 E7        29.99F
Detroit        CLOUDY    40  33  76 NE8       30.15F WCI  34
Chicago O`Hare HVY RAIN  42  39  89 E14       29.95F FOG
Minneapolis    LGT RAIN  41  36  82 E15       30.04F
Indianapolis   CLOUDY    55  42  61 E15G24    29.87F
Toronto Canada MOCLDY    37  23  56 E10       30.29R WCI  30

$$




USA.gov is the U.S. government's official web portal to all federal, state and local government web resources and services.